Weather History for Blythe, CA

Change the Weather History Date:

Saturday, August 9, 2014

  Actual Average Record
Temperature  
Mean Temperature 92 °F -  
Max Temperature 105 °F 106 °F 114 °F (2002)
Min Temperature 79 °F 80 °F 70 °F (2009)
Cooling Degree Days 27    
Growing Degree Days 42 (Base 50)    
Moisture  
Dew Point 52 °F    
Average Humidity 26    
Maximum Humidity 42    
Minimum Humidity 15    
Precipitation  
Precipitation 0.00 in - - ()
Sea Level Pressure  
Sea Level Pressure 29.83 in    
Wind  
Wind Speed 7 mph (South)    
Max Wind Speed 13 mph    
Max Gust Speed 20 mph    
Visibility 10 miles    
Events      
Averages and records for this station are not official NWS values.
T = Trace of Precipitation, MM = Missing Value Source: NWS Daily Summary

Daily Weather History Graph

Daily Weather History Graph

Search for Another Location

Airport:

Trip Planner

Search our weather history database for the weather conditions in past years. The results will help you decide how hot, cold, wet, or windy it might be!

Date:

Astronomy

Aug. 09, 2014 Rise Set
Actual Time 5:56 AM PDT 7:31 PM PDT
Civil Twilight 5:30 AM PDT 7:57 PM PDT
Nautical Twilight 4:58 AM PDT 8:29 PM PDT
Astronomical Twilight 4:24 AM PDT 9:03 PM PDT
Moon 6:37 PM PDT (8/9) 4:42 AM PDT (8/9)
Length of Visible Light 14h 27m
Length of Day
13h 34m
Waxing Gibbous, 99% of the Moon is Illuminated
Aug 9
Waxing Gibbous
Aug 10
Full
Aug 17
Last Quarter
Aug 25
New
Sep 2
First Quarter

Hourly Weather History & Observations

Time (PDT) Temp. Heat Index Dew Point Humidity Pressure Visibility Wind Dir Wind Speed Gust Speed Precip Events Conditions
12:52 AM 91.0 °F - 46.0 °F 21% 29.82 in 10.0 mi SSW 10.4 mph - N/A   Clear
1:52 AM 89.1 °F - 45.0 °F 22% 29.81 in 10.0 mi SSW 9.2 mph - N/A   Clear
2:52 AM 84.9 °F - 46.9 °F 27% 29.81 in 10.0 mi South 4.6 mph - N/A   Clear
3:52 AM 82.9 °F - 46.0 °F 27% 29.82 in 10.0 mi Calm Calm - N/A   Clear
4:52 AM 82.0 °F - 46.9 °F 29% 29.83 in 10.0 mi South 3.5 mph - N/A   Clear
5:52 AM 79.0 °F - 51.1 °F 38% 29.85 in 10.0 mi WNW 3.5 mph - N/A   Clear
6:52 AM 81.0 °F 80.5 °F 54.0 °F 39% 29.87 in 10.0 mi Calm Calm - N/A   Clear
7:52 AM 86.0 °F 84.2 °F 54.0 °F 33% 29.88 in 10.0 mi Calm Calm - N/A   Clear
8:52 AM 89.1 °F 90.0 °F 63.0 °F 42% 29.89 in 10.0 mi South 6.9 mph - N/A   Clear
9:52 AM 91.9 °F 91.8 °F 61.0 °F 35% 29.91 in 10.0 mi South 5.8 mph - N/A   Clear
10:52 AM 95.0 °F 94.0 °F 57.9 °F 29% 29.91 in 10.0 mi South 12.7 mph - N/A   Clear
11:52 AM 97.0 °F 96.1 °F 57.9 °F 27% 29.89 in 10.0 mi SSW 11.5 mph 19.6 mph N/A   Clear
12:52 PM 99.0 °F 98.1 °F 57.9 °F 25% 29.87 in 10.0 mi South 12.7 mph 17.3 mph N/A   Clear
1:52 PM 102.0 °F 99.7 °F 53.1 °F 19% 29.84 in 10.0 mi SE 11.5 mph - N/A   Clear
2:52 PM 102.9 °F - 48.9 °F 16% 29.82 in 10.0 mi SSE 11.5 mph 18.4 mph N/A   Clear
3:52 PM 102.9 °F - 48.9 °F 16% 29.79 in 10.0 mi SSE 9.2 mph 19.6 mph N/A   Clear
4:52 PM 105.1 °F - 48.9 °F 15% 29.77 in 10.0 mi Variable 5.8 mph - N/A   Clear
5:52 PM 104.0 °F - 51.1 °F 17% 29.76 in 10.0 mi SSE 10.4 mph - N/A   Clear
6:52 PM 102.0 °F - 51.1 °F 18% 29.76 in 10.0 mi South 11.5 mph - N/A   Clear
9:52 PM 97.0 °F - 45.0 °F 17% 29.79 in 10.0 mi WSW 9.2 mph - N/A   Clear
10:52 PM 93.9 °F - 46.9 °F 20% 29.81 in 10.0 mi West 10.4 mph - N/A   Clear
11:52 PM 89.1 °F 87.1 °F 55.0 °F 31% 29.83 in 10.0 mi South 8.1 mph - N/A   Clear